TIMESTAMP,CO2_1_1_1,H2O_1_1_1,TAU_1_1_1,TAU_SSITC_TEST_1_1_1,H_1_1_1,H_SSITC_TEST_1_1_1,LE_1_1_1,LE_SSITC_TEST_1_1_1,FC_1_1_1,FC_SSITC_TEST_1_1_1,WD_0_0_1,WS_0_0_1,WS_MAX_0_0_1,U_SIGMA_0_0_1,V_SIGMA_0_0_1,W_SIGMA_0_0_1,USTAR_0_0_1,MO_LENGTH_0_0_1,ZL_0_0_1,FETCH_MAX_0_0_1,FETCH_70_0_0_1,FETCH_80_0_0_1,FETCH_90_0_0_1,PA_0_0_1,RH_0_0_1,TA_0_0_1,VPD_0_0_1,T_SONIC_0_0_1,T_SONIC_SIGMA_0_0_1
[yyyymmddHHMMSS],[mmolCO2 mol-1],[mmolH2O mol-1],[kg m-1 s-2],[#],[W m-2],[#],[W m-2],[#],[umolCO2 m-2 s-1],[#],[Decimal degrees],[m s-1],[m s-1],[m s-1],[m s-1],[m s-1],[m s-1],[m],[#],[m],[m],[m],[m],[kPa],[%],[deg C],[hPa],[deg C],[deg C]
20221213003000,425.88260232806067,4.6311348120832099,0.45968151130445650,0,-19.574171048291582,0,0.98464545610784293,0,1.0986676782450329,0,122.06404628103661,2.4080915448878555,6.6693176382850829,1.1608656883962094,0.92705965069515761,0.66021619533955045,0.61434542865841435,993.02821530797291,1.9133393902717490E-002,118.20505946895061,216.11654827935803,258.63631135377892,323.78197091374307,94.747064667751744,87.241379310344826,-2.6106896551723935,0.64187560417357359,-2.1005185631645986,7.4434146397931195E-002
20221213010000,425.75098025681496,4.6182658420856120,0.51350433209895241,0,-17.554772058724918,0,5.7490864497587122,0,1.4351510005325934,0,117.32995706338525,2.9970401194560559,7.4423389980512997,1.3691519308668654,0.92661026178657691,0.67615960940555242,0.64936606927516061,1307.5276218906572,1.4531241774094534E-002,121.22918734302273,221.64561852927855,265.25319629868778,332.06552567663761,94.738214700954870,86.876666666666665,-2.5930000000000177,0.66109156370985378,-2.0864865688747614,6.3703323526889358E-002
20221213013000,425.57563981237269,4.6062841203322833,0.60204376873872645,0,-14.703651748681834,0,1.3333444775635117,1,1.1935296090011487,0,123.69145759866252,3.0908311958743542,9.1240785384058203,1.5279281013312960,1.2015915430441446,0.82842225060235131,0.70299968779821109,1980.7408642092862,9.5923703818696238E-003,109.80385849760776,200.75647347812054,240.25422483454113,300.76977988939564,94.741715112630203,87.196666666666673,-2.6770000000000209,0.64096101194090405,-2.1764560258653205,5.5396335203248825E-002
20221213020000,425.27755474958104,4.6041435590195325,0.59975778697223836,0,-9.9460324331804149,0,0.58040800017295524,2,0.64878103073781490,0,126.53710370362455,3.7822736171470392,9.3086773293027658,1.5014188290256076,1.2772919071777145,0.83167270079293321,0.70163799283177819,2911.2100946854230,6.5264956434046319E-003,109.29075365860740,199.81835418603288,239.13153564092261,299.36430624213136,94.740773795355892,87.299999999999997,-2.6993333333333567,0.63473396847675079,-2.1987789374457520,5.5640747525712450E-002
20221213023000,425.13315060506562,4.6045976917292428,0.59980207323058554,0,-5.9127049094119739,1,0.56759650549052409,0,0.56748366408470430,0,121.13808660002670,3.6980015003986604,9.7604963521472303,1.5675886484686383,1.2684071389985325,0.86501250732614821,0.70158964233578003,4895.9344446436153,3.8807709161193739E-003,105.90184473398564,193.62234783475864,231.71649852055037,290.08155966773933,94.737253094818300,87.743333333333339,-2.7666666666666515,0.60951893963786741,-2.2672210023295634,5.7207176906980253E-002
20221213030000,425.00026606604604,4.6050813225999363,0.73189305994416587,0,-9.9031542912547224,0,0.22538903307155211,1,0.79086246605511723,0,121.44574171342089,3.6463530784361038,10.554870715217712,1.5572238394041222,1.2866728559678935,0.89475901548603076,0.77494019548638760,3938.7520613242259,4.8238629149995587E-003,111.61037923201422,204.05936954085269,244.20694785020643,305.71812005783244,94.723724546006935,88.276666666666671,-2.8486666666666451,0.57945236163120062,-2.3511715791490246,5.5391422414989476E-002
20221213033000,424.69182459099011,4.5693197098324205,0.95511801643259375,0,-13.775548522192894,0,-0.47803631441308131,2,0.74875524722577935,0,122.37489945820585,3.5526064164247719,9.5188091782933100,1.7633858031117411,1.3238359892603138,0.95122624839052450,0.88525094697608797,4220.3927076647815,4.5019507226172414E-003,118.21727904518288,216.13888956194455,258.66304816299180,323.81544222617242,94.704714050998277,87.956666666666663,-2.9073333333333267,0.59267630832949181,-2.4103013856675943,5.6106595688504943E-002
20221213040000,424.58953379080384,4.5269892023397276,0.79156681956759023,0,-18.090827996672729,0,2.8158641300517893,0,1.0257272942950244,0,120.35799016424528,3.1235346647342244,10.113294171775514,1.5983826174960971,1.1876169487680421,0.84853726400359875,0.80586725238325196,2424.0519955321847,7.8381156984335537E-003,120.15143737808235,219.67514786264607,262.89504617595924,329.11340155125470,94.689622426146329,87.526666666666671,-2.9686666666666497,0.61104115492608746,-2.4757711702802681,5.6365212035849162E-002
20221213043000,424.36314786359105,4.4799170076318804,0.91335115501216435,0,-12.367704917461065,0,0.39474149313333018,2,0.69798055094497657,1,123.81369974307448,3.5401863106502254,11.629325418130607,1.7900942579651560,1.4261658310603293,0.98096808158279025,0.86555978746136975,4393.3436074275787,4.3247243324828427E-003,113.28402097509384,207.11932042785872,247.86892753959125,310.30248408262423,94.685600711805563,86.990000000000009,-3.0269999999999868,0.63456826982916825,-2.5392623875935669,5.4797791190557221E-002
20221213050000,424.10995745144226,4.4768857536825806,0.83565320442335334,0,-10.012556209195902,0,2.0336211444196848,0,0.51497347831652529,1,120.72416799109237,3.6800489244067225,9.9602056294659427,1.6374596901194347,1.3609310226325391,0.94519844213977078,0.82788713033504568,4748.5811846906408,4.0011951488279768E-003,112.61945134762267,205.90427519522979,246.41482872301694,308.48212491391581,94.686423521050358,87.076666666666668,-3.0493333333333226,0.62929307747568319,-2.5578515752156363,5.5760436101504454E-002
20221213053000,423.98348102276304,4.4666146902133530,0.79344274297603390,0,-11.139745484490847,0,1.0201478498294092,0,0.71787163044325153,0,121.41933958156022,4.2634139983940402,10.713712350914887,1.8199766457997912,1.4782487048919515,0.95454271137694569,0.80684092313510580,3950.2141421768129,4.8098658240157636E-003,109.45836109492794,200.12479403527689,239.49826587463812,299.82340897695059,94.667267310980904,86.626666666666665,-3.0133333333333212,0.65295443541452303,-2.5238677825927311,5.9822490306007274E-002
20221213060000,423.94844275712848,4.4636456570645890,0.84320527248452848,0,-12.774591167990540,0,1.0970060880918033,1,0.66268570690199557,0,123.35591625687358,3.6733218949611466,11.096901305179381,1.7944213860023117,1.4725518581380455,0.96035784040593408,0.83175589135163375,3773.8068452497582,5.0347038889698506E-003,111.61052198981051,204.05963054763455,244.20726020866226,305.71851109355333,94.669418976891521,86.536666666666662,-3.0079999999999814,0.65760989312930918,-2.5244667554275111,5.5922111533845659E-002
20221213063000,424.11683825414121,4.5149803478852570,0.77502677168024536,0,-9.2483705689794835,0,-0.59907579102437092,1,0.62217425069027399,0,123.01860261553043,3.7176036908450847,9.6208604365347181,1.6508435063828615,1.2165124652696189,0.88661670169007489,0.79750845639899770,4594.1771951350884,4.1356698257349906E-003,115.04146689946782,210.33249208624360,251.71427335918551,315.11640074342165,94.646371450520832,87.586666666666673,-3.0196666666666943,0.60579646025101119,-2.5257682410345978,5.3814695359440001E-002
20221213070000,424.13719485879909,4.5340073981459605,0.93598854609156079,0,-9.8925250652817400,0,-0.45526931197672738,2,0.63067018736112235,0,123.74547083222561,3.8995659892079986,11.006113837572862,1.7775826556780672,1.4580374129774203,0.99124906695729709,0.87650165906644517,5701.3950203959512,3.3325177315429175E-003,113.47778773162943,207.47358785754312,248.29289517175945,310.83324124826936,94.634643862413199,87.846666666666664,-3.0046666666666511,0.59377099431379976,-2.5092156473795626,5.1987427050753009E-002
20221213073000,424.26514100419240,4.5076395061028123,0.83921449636645706,0,-10.888230669409390,0,2.0987493002223858,0,0.62882669619153608,0,125.93989177913370,3.5029171596626374,10.639381973438690,1.7650996239444419,1.4131997191004146,0.99211315873410821,0.82991890382307709,4397.1776071425447,4.3209535064349909E-003,108.55115719041498,198.46613595998195,237.51327578569351,297.33843693308472,94.633502757161466,87.486666666666665,-3.0280000000000200,0.61029767420956660,-2.5376735369364383,5.2790879351197591E-002
20221213080000,424.43437283890898,4.5040493719420649,0.89698733433469646,0,-11.739851994402564,0,1.7327025212785021,1,0.93161110835906646,0,124.86321782054122,3.4512103479889671,10.237252551570398,1.6538519336366109,1.3944146302183862,0.95275293963417662,0.85795905396992045,4505.8544337092744,4.2167363104002823E-003,115.14468902539492,210.52121505344687,251.94012655040945,315.39914213811937,94.638411957899308,87.536666666666662,-3.0456666666666479,0.60705951609863462,-2.5531272879706535,5.2606375085567918E-002
20221213083000,424.64549237554678,4.5426291131730077,0.49603625848630295,0,-7.2295953836137601,0,-0.36949021730091181,2,0.53004484637490445,0,122.59882160355883,3.0275564163010613,7.8144870153772850,1.3387634703100069,1.1399850856389031,0.76361857389195931,0.63796245654540029,3008.3045342337023,6.3158499359971948E-003,108.44007528355188,198.26304280647906,237.27022515166573,297.03416638071934,94.640797430989579,88.556666666666672,-3.0863333333333003,0.55569109573444853,-2.5924893942938638,4.3581285163883599E-002
20221213090000,424.62262700040674,4.5319323379057153,0.99076516231253153,0,-12.237595486051960,0,3.7892223205975060,1,1.7652251001890025,0,120.21713764215671,3.2088930137400200,11.090765008318158,1.8092578493754969,1.2775191113403501,0.97736559842871351,0.90161317356511461,5016.3577329600485,3.7876086617906523E-003,117.38847476787383,214.62357100945698,256.84959887342268,321.54521890735288,94.632955696831601,88.510000000000005,-3.1120000000000232,0.55689073059004846,-2.6204234644571898,4.8468488000729934E-002
20221213093000,424.48979302914660,4.5014195938429999,0.58203442905893443,0,-3.2320301971651619,1,4.7890886001157901E-002,2,0.57652959466193776,0,116.67821242705344,3.1579048810416932,9.8882683666019560,1.4724845344556150,1.1431344677077020,0.83762291784727616,0.69106902976925488,8550.6665801064701,2.2220489855380864E-003,107.35770108526361,196.28411756646310,234.90195706392529,294.06937576378294,94.599326044270825,88.393333333333331,-3.1896666666666533,0.55929639384380669,-2.7058716871473507,5.8540489060636053E-002
20221213100000,424.44061268968403,4.4995346487832730,0.92209021068599950,0,2.4371334795515471,2,-2.0373761581354368,2,0.78360385092825813,0,111.45875420360406,3.6523477934323543,9.8936652603856476,1.6009433985722763,1.3421804547696681,1.0052207642818174,0.86984815229683154,-22606.822164870322,-8.4045426028629927E-004,111.53225814216266,203.91653927316034,244.03601649913807,305.50413428974684,94.562118125651054,88.943333333333328,-3.2836666666666474,0.52906872119362958,-2.8002827512952990,6.0947913727669757E-002
20221213103000,424.29347810707799,4.5358568204166483,0.89595225128500988,0,-2.7673888932008284,0,0.50684707234623116,1,0.62223704172506900,0,117.74718915174466,3.7458967773493699,10.691151853374029,1.7946161870934261,1.4397701357270352,0.97188603199037449,0.85740665938510696,19063.560582836246,9.9666585984501386E-004,113.26927201219800,207.09235461974467,247.83665635444223,310.26208438825580,94.538647488281242,90.216666666666669,-3.3696666666666601,0.46514169949246881,-2.8788537835014836,4.7465160029550098E-002
20221213110000,424.16364018214290,4.5847893270521780,0.70147329703359795,0,-4.8270085521371282,0,0.77184175184206005,2,0.76027497557778168,0,121.98630154444808,3.8993564169948791,9.9909164141356328,1.7806737200573903,1.3497419571976743,0.90040777910565051,0.75865803734307902,7572.1863257654713,2.5091828413347042E-003,109.17931359373982,199.61460620546919,238.88770134614819,299.05905463950381,94.552039222248851,91.010000000000005,-3.3413333333333526,0.42832886350889682,-2.8476536265769141,5.5331861092258829E-002
20221213113000,424.21890437863874,4.6245434823969527,0.71767332095913827,0,-7.2716917847238385,0,-1.3389425041056429,1,0.42800347966251145,0,120.82430231449489,3.3125751710879778,10.074590164705384,1.6552071579532555,1.1962360179475511,0.85743761324407253,0.76740162177277171,5202.8555763349832,3.6518407480732066E-003,114.58058765433923,209.48985783625236,250.70585537373637,313.85398108887063,94.565709336627691,91.413333333333327,-3.2830000000000155,0.41089805879799030,-2.7918152296326753,4.7275162416112411E-002
20221213120000,424.38346983668822,4.6556963088378014,0.71682125801135987,0,-5.8422597152042970,0,6.9754478862923769E-002,2,0.65734538763527128,0,123.13956385045078,3.8431674487992131,10.573605505697074,1.7258830513847616,1.3930367442129172,0.95878094289601301,0.76698660078123615,6466.5439559924671,2.9382000848216508E-003,104.73928545113417,191.49681868644006,229.17278299773233,286.89712968143584,94.589500003472224,91.413333333333327,-3.1896666666666533,0.41377010641632583,-2.7004445122612424,5.5641338000416200E-002
20221213123000,424.62982581486756,4.6659442453139137,1.1951964324167053,0,-8.8583431744102512,0,0.72434820597384486,2,0.58455101229314743,0,125.06009263446609,4.1341239451322940,12.720169883249646,1.9666744639837572,1.6005534530876055,1.1290336101579121,0.99057590340391533,9186.9853032917454,2.0681430711761563E-003,112.77156583853713,206.18238899904998,246.74765991493311,308.89879007100882,94.580763356119775,91.056666666666672,-3.1089999999999804,0.43355730608579168,-2.6272802810668736,5.6774909389564948E-002
20221213130000,424.81236944823797,4.6741451809213999,0.84813296255327875,0,-2.5870975364974309,0,1.5447110375730515,2,0.66028679280333391,0,113.92772203041599,4.1815672970328093,12.286767948642508,1.9222444277834889,1.3584712100690639,1.0423159212298978,0.83460640084144888,18809.749570317708,1.0101144584073842E-003,104.81918326461738,191.64289737158802,229.34760187483766,287.11598217080910,94.546561536024299,91.163333333333327,-3.1059999999999945,0.42848210853719482,-2.6322513075934353,5.1889562894118738E-002
20221213133000,424.91070165357434,4.7089200404125799,1.3363881993545053,0,-4.6321960670908906,0,-0.49609546332590876,0,0.83023696646841694,0,118.47075031006362,4.1441323986006573,11.408704828212215,1.9675909507832474,1.5196133037463302,1.1420479001946535,1.0478393976696039,20785.155041671966,9.1411394150811359E-004,116.88081274479136,213.69540292076431,255.73881872869512,320.15465397612098,94.516943958541702,91.746666666666670,-3.0963333333333480,0.40048527946937046,-2.6181466483020586,5.3948349133083183E-002
20221213140000,425.02998073703253,4.7465157232346513,1.0486065741220283,0,-5.9816380733424506,1,-3.5717293208684202,1,0.28572709362503040,2,118.11749442362455,4.0494334566206769,12.752042160233122,1.8963686757700455,1.4929150166270528,1.0806823940943646,0.92819751069216205,11190.023049153959,1.6979410959691032E-003,110.86864973762466,202.70325146261959,242.58402086795144,303.68640805957074,94.538556605251742,92.053333333333327,-3.0313333333333503,0.38747692760753522,-2.5541641387939080,5.5551869828314462E-002
20221213143000,425.29599116420110,4.7972000804630834,1.1774412401863557,0,0.42428273605333333,2,-1.7700971646087531,1,0.54689381178961383,0,119.58749171905745,4.0890096492682835,11.405759769002900,1.8973648718401197,1.6417252758130445,1.1506761215913874,0.98378253081257161,-187826.90634355150,-1.0115696611244489E-004,110.46169531213341,201.95920898136453,241.69359204899041,302.57169684035898,94.533025516276041,92.356666666666669,-2.9336666666666815,0.37540704567488492,-2.4590111054314434,5.4424301331745098E-002
20221213150000,425.49599888299690,4.8245727026040273,0.89384235128502532,0,2.5643031091958850,1,-2.3412100190818408,1,0.35535674397859673,1,115.54630573312284,3.5868340260001079,10.943006830752282,1.7341178312015051,1.4628046244885813,1.0746200581462262,0.85735070146297876,-20567.854097758514,-9.2377162487119265E-004,104.51478987998078,191.08636918318155,228.68157977259776,286.28220153186248,94.522230667534728,92.260000000000005,-2.8446666666666829,0.38268091801864673,-2.3778765233357717,5.0691489645031756E-002
20221213153000,425.49284884071238,4.8490473982043865,1.0548468051975417,0,3.4277602582501028,0,-0.29093598398337805,2,0.69152056094561387,0,120.93578497921811,3.7570291733793253,11.998703571338114,1.9480756723158217,1.5347022164366591,1.0218684339403277,0.93146160941866174,-19735.454349735821,-9.6273435935638008E-004,116.27085893538950,212.58021282238784,254.40422100446389,318.48389599451059,94.545869278862853,91.943333333333328,-2.7269999999999754,0.40183764387487886,-2.2601215697393968,5.5183893652990340E-002
20221213160000,425.22446535477565,4.8302610681172240,1.3281335636044911,0,12.529323515882549,0,1.9442718372238788,1,0.89274665544939036,0,117.63898923319809,4.2714622786210326,11.059873056461207,1.9938111048099521,1.5442721265542212,1.1458847918501025,1.0455290925061269,-7634.5747655520390,-2.4886782281221334E-003,116.36196133298101,212.74677706080459,254.60355585674864,318.73343957563708,94.528211887369778,90.676666666666662,-2.5950000000000273,0.46959578621222592,-2.1412923787434579,6.0591615617456122E-002
20221213163000,424.93222314300056,4.8003742845904913,1.1202528526618092,0,24.039791546343643,0,3.6799066727197789,1,0.50002819342642291,0,116.95576333739341,3.8597262835753550,11.419566009196460,1.9084348732308041,1.5027712851461219,1.1062072833564260,0.96061119987550947,-3085.6388749866160,-6.1575578898818524E-003,111.84686242918072,204.49173624772038,244.72438037032930,306.36588417224976,94.506889763888893,89.036666666666662,-2.4356666666666342,0.55876446195682894,-1.9937708121405535,7.8181101021583460E-002
20221213170000,424.69005664800733,4.7738284403031166,1.5399088954657143,0,36.723881980176046,0,8.2795113567403984,1,1.3488032167053170,0,115.10018516232891,4.2397990514414712,12.565976960434492,2.1151973719055088,1.6625333197201222,1.2311597828411891,1.1268226982349667,-3259.0577327365750,-5.8299059292963263E-003,116.65082988795648,213.27492090920003,255.23560915345695,319.52469530094322,94.458806238281255,87.603333333333339,-2.2983333333333462,0.63827822931710620,-1.8690639902750377,9.9959281191844385E-002
20221213173000,424.36050201325651,4.7096863360595345,1.4533415294164573,0,33.472538776690406,0,14.357894977331799,0,1.1967306078313715,0,117.98051395095140,4.2092377311714460,12.372252137456194,2.2406032601979287,1.5425879011886450,1.1432725995347004,1.0950868298505569,-3280.4879792627871,-5.7918212534556540E-003,120.97452025945033,221.18000587860774,264.69597687496514,331.36795308019907,94.401524953776047,86.133333333333340,-2.2606666666666797,0.71595923392717231,-1.8377721608479760,9.9221585966057541E-002
20221213180000,424.19803758393107,4.7000737206147178,1.4188924601487329,0,54.929145458562729,0,6.1725839726335314,1,0.73193235133894885,0,115.04525335429936,4.5268930352425034,12.366739781499543,2.1158350048575993,1.7221014992186761,1.2627214208326998,1.0826452853941868,-1930.9113956317312,-9.8399129255663329E-003,110.71279443907581,202.41829826937428,242.24300467369787,303.25949625081898,94.348280473090270,84.923333333333332,-2.1046666666666738,0.78746895134859585,-1.7015977325439167,0.10740248501712667
20221213183000,424.25494847229282,4.6960593517436635,1.7357579243208363,0,52.798074944904258,0,3.2098422387137058,1,0.72877236710710580,0,110.38438404146126,4.3367465978748507,11.485188952024119,2.1071248367013906,1.6236011944754589,1.2820221973952239,1.1977807079139988,-2719.1208391428918,-6.9875526407237893E-003,118.58788268040736,216.81647120510203,259.47394033308495,324.83058299916360,94.290003475043406,84.896666666666661,-2.1203333333333489,0.78794857954553099,-1.7033489023843913,8.9299938832362466E-002
20221213190000,424.44226806372563,4.6585134883299517,1.1654472311566451,0,29.017697359765215,0,8.6718528069013274,1,7.6370293311130003E-002,2,107.40000492931131,4.1397217170808451,11.499069838962336,1.9956826686247289,1.5932873756092378,1.1189309356400856,0.98181245922772742,-2724.1254352308424,-6.9747155377923847E-003,112.78078316958512,206.19924121992267,246.76782771920043,308.92403776875284,94.257145727213540,83.593333333333334,-2.0243333333333453,0.86203883698439887,-1.6054139268662766,9.3232721473956184E-002
20221213193000,424.68557253703034,4.6270583962767962,1.1576303492483500,0,34.096279425069326,0,2.6638456470104326,1,0.50369444886078996,0,109.95638075885996,4.1411375625877742,11.028235229958065,2.0120566933772586,1.4913052873313604,1.0812017592114969,0.97858059452823698,-2295.6474325838999,-8.2765322454651791E-003,115.61303026206281,211.37749220385206,252.96487160320871,316.68200134355249,94.263184327039923,82.683333333333337,-1.9669999999999845,0.91371317486827086,-1.5467188898722384,8.5698179884961270E-002
20221213200000,424.74120131653677,4.6223295370328454,0.91390768577688009,0,35.360681719121160,0,7.3761330418255415,0,0.53924431285339935,0,107.77606355435478,4.2590933728076488,10.955123168617583,1.8284197582053721,1.4391286951509348,1.0431652998905117,0.86957191680759138,-1553.1871985915161,-1.2232910506363855E-002,108.24723169403785,197.91046322053910,236.84827743737833,296.50593791256875,94.264872691840282,82.243333333333339,-1.9083333333333599,0.94099649721149947,-1.4897551328870691,8.7955268077921769E-002
20221213203000,424.64413470074578,4.6288055287944232,1.1213191802250231,0,17.350874013968273,1,10.819042022805919,0,1.2573664666238749,0,111.86890199814476,3.9922048220453319,10.595227343952486,1.9133560228236970,1.5656527282539683,1.0709972620817341,0.96335763538161590,-4304.7749683191059,-4.4137034199999000E-003,115.04142336161513,210.33241248516319,251.71417809702265,315.11628148649800,94.289189002387161,81.443333333333328,-1.7533333333333303,0.99469913653031539,-1.3246413803100268,0.10510893790594442
20221213210000,424.52286713949718,4.6043262986676101,0.86855157571037478,0,18.713829521172958,0,8.0387891675850280,1,1.2943879463687133,1,99.049464202787448,3.6864335655730058,10.435098859074049,1.7899497288670736,1.3750287009026039,0.96907784213815018,0.84799384397665933,-2721.3086964012646,-6.9819348408088127E-003,112.53357827933060,205.74727183858144,246.22693580432568,308.24690527589917,94.245143345486099,81.180000000000007,-1.7876666666666665,1.0062644369477494,-1.3511011852688171,7.5811853561706929E-002
20221213213000,424.03388976740928,4.6111246592028277,0.93227235705838973,0,3.4602514246708664,2,-0.15820405005567964,2,-9.5433051556459911E-002,2,93.217376480641164,3.6974862659009569,10.329809442154087,1.8037842609603618,1.2958604181071876,0.98475981887985320,0.87861472584390454,-16363.539557772188,-1.1611179801851350E-003,114.29557749163661,208.96876835950277,250.08224435817650,313.07329409776480,94.192643358723956,81.926666666666662,-1.8993333333333453,0.95841433478183780,-1.4454061686197406,6.1084533041072399E-002
20221213220000,423.41723995550251,4.5612717624436812,0.90793283990705820,0,-6.1928293375367094,1,7.3437147051648015,1,0.86861099047223678,0,97.912745722231435,4.3677002964081133,10.989648207582924,1.9090483504951683,1.4951076795286478,1.0417851733101147,0.86683578870348821,8779.3024566478471,2.1641810489867398E-003,108.08908211275418,197.62131534673063,236.50224128182703,296.07274170796251,94.178556483940980,82.123333333333335,-2.0810000000000173,0.93535060334520437,-1.6281076761881650,8.3574903552741234E-002
20221213223000,423.42537029573992,4.5245883190874423,0.86845259375565487,0,-10.536803311736133,0,0.91496904416212665,1,0.78264282949768971,0,91.243069206369512,3.6029563939496740,10.504500045289015,1.8752429635769468,1.3551761938087996,0.95015605724356844,0.84747863287584635,4821.6712176482706,3.9405424265462645E-003,114.26729657203870,208.91706181874110,250.02036483491958,312.99582827753846,94.174065171006959,82.683333333333337,-2.2826666666666711,0.89263351228478083,-1.8245819363064584,8.4434577533566785E-002